Date String (YYYY-MM-DD hh:mm:ss) UTC,Instrument flags,Ambient pressure (hPa),Sample flow (lpm),Bypass flow (lpm),Sample temperature (°C),Ambient temperature (°C),ASC tube jacket temperature (°C),LED temperature (°C),Box temperature (°C),Sample RH (%),Span deviation,Mass concentration (μg/m³),Mass concentration (μg/m³),Mass concentration (μg/m³)
DateTimeUTC,F1_M11,P_M11,Q1_M11,Q2_M11,T1_M11,T2_M11,T3_M11,T4_M11,T5_M11,U1_M11,ZSPAN_M11,X0_M11,X2_M11,X1_M11
2022-02-28 09:00:00,,0831.1,4.99,0.00,23.8,23.1,00.0,32.9,25.6,06.1,0000.0,0007.76,0003.71,0003.35
2022-02-28 09:01:00,,0831.2,5.01,0.00,23.8,23.1,00.0,32.9,25.6,05.9,0000.0,0007.67,0003.58,0003.23
2022-02-28 09:02:00,,0831.2,5.00,0.00,23.8,23.1,00.0,32.9,25.6,05.8,0000.0,0007.65,0003.49,0003.13
2022-02-28 09:03:00,,0831.2,4.99,0.00,23.8,23.1,00.0,32.9,25.6,05.7,0000.0,0007.62,0003.42,0003.00
2022-02-28 09:04:00,,0831.2,5.01,0.00,23.8,23.1,00.0,32.9,25.6,05.7,0000.0,0007.61,0003.37,0002.87
2022-02-28 09:05:00,,0831.1,4.99,0.00,23.8,23.1,00.0,32.9,25.6,05.8,0000.0,0007.67,0003.31,0002.73
2022-02-28 09:06:00,,0831.1,5.01,0.00,23.9,23.1,00.0,32.9,25.6,05.6,0000.0,0007.72,0003.25,0002.58
2022-02-28 09:07:00,,0831.1,5.01,0.00,23.8,23.1,00.0,32.9,25.6,05.5,0000.0,0007.75,0003.15,0002.43
2022-02-28 09:08:00,,0831.2,4.99,0.00,23.8,23.1,00.0,32.9,25.6,05.6,0000.0,0006.58,0002.95,0002.29
2022-02-28 09:09:00,,0831.1,5.00,0.00,23.8,23.1,00.0,32.9,25.5,05.7,0000.0,0005.93,0002.78,0002.16
2022-02-28 09:10:00,,0831.1,5.01,0.00,23.8,23.1,00.0,32.9,25.6,05.9,0000.0,0005.60,0002.72,0002.09
2022-02-28 09:11:00,,0831.2,5.00,0.00,23.8,23.1,00.0,32.9,25.6,05.9,0000.0,0005.18,0002.69,0002.10
2022-02-28 09:12:00,,0831.1,5.00,0.00,23.8,23.1,00.0,32.9,25.6,06.2,0000.0,0005.43,0002.84,0002.20
2022-02-28 09:13:00,,0831.1,4.99,0.00,23.8,23.1,00.0,32.8,25.6,06.4,0000.0,0005.66,0003.05,0002.40
2022-02-28 09:14:00,,0831.2,5.00,0.00,23.8,23.1,00.0,32.8,25.6,06.6,0000.0,0006.16,0003.33,0002.82
2022-02-28 09:15:00,,0831.2,5.01,0.00,23.8,23.1,00.0,32.8,25.6,06.6,0000.0,0006.74,0003.57,0003.19
2022-02-28 09:16:00,,0831.2,4.98,0.00,23.8,23.1,00.0,32.8,25.6,06.6,0000.0,0007.14,0003.81,0003.42
2022-02-28 09:17:00,,0831.2,5.01,0.00,23.8,23.1,00.0,32.8,25.6,06.5,0000.0,0007.39,0004.01,0003.62
2022-02-28 09:18:00,,0831.2,4.99,0.00,23.8,23.1,00.0,32.8,25.6,06.6,0000.0,0007.40,0004.22,0003.83
2022-02-28 09:19:00,,0831.2,5.01,0.00,23.9,23.1,00.0,32.8,25.6,06.6,0000.0,0007.63,0004.47,0004.08
2022-02-28 09:20:00,,0831.2,5.01,0.00,23.9,23.1,00.0,32.8,25.6,06.6,0000.0,0007.79,0004.69,0004.31
2022-02-28 09:21:00,,0831.3,5.00,0.00,23.9,23.1,00.0,32.8,25.6,06.5,0000.0,0008.25,0004.89,0004.51
2022-02-28 09:22:00,,0831.3,4.99,0.00,23.9,23.1,00.0,32.8,25.7,06.6,0000.0,0008.57,0005.08,0004.68
2022-02-28 09:23:00,,0831.4,5.01,0.00,23.9,23.1,00.0,32.8,25.7,06.6,0000.0,0008.87,0005.19,0004.81
2022-02-28 09:24:00,,0831.4,5.01,0.00,23.9,23.1,00.0,32.8,25.6,06.4,0000.0,0009.37,0005.12,0004.77
2022-02-28 09:25:00,,0831.4,4.98,0.00,23.9,23.1,00.0,32.8,25.6,06.2,0000.0,0009.13,0004.90,0004.57
2022-02-28 09:26:00,,0831.4,5.01,0.00,23.8,23.1,00.0,32.8,25.6,06.2,0000.0,0008.90,0004.68,0004.36
2022-02-28 09:27:00,,0831.4,5.00,0.00,23.8,23.1,00.0,32.8,25.6,06.2,0000.0,0008.57,0004.43,0004.12
2022-02-28 09:28:00,,0831.4,5.01,0.00,23.8,23.1,00.0,32.8,25.5,06.2,0000.0,0008.37,0004.24,0003.93
2022-02-28 09:29:00,,0831.4,5.00,0.00,23.8,23.1,00.0,32.8,25.5,06.2,0000.0,0008.25,0004.05,0003.74
2022-02-28 09:30:00,,0831.4,4.98,0.00,23.8,23.1,00.0,32.8,25.5,06.1,0000.0,0008.28,0003.85,0003.52
2022-02-28 09:31:00,,0831.4,5.00,0.00,23.7,23.0,00.0,32.8,25.5,06.2,0000.0,0008.35,0003.70,0003.33
2022-02-28 09:32:00,,0831.4,5.01,0.00,23.7,23.0,00.0,32.8,25.5,06.2,0000.0,0008.10,0003.57,0003.17
2022-02-28 09:33:00,,0831.4,5.01,0.00,23.7,23.0,00.0,32.8,25.5,06.0,0000.0,0007.71,0003.37,0002.86
2022-02-28 09:34:00,,0831.4,4.99,0.00,23.7,22.9,00.0,32.8,25.4,06.1,0000.0,0007.41,0003.23,0002.56
2022-02-28 09:35:00,,0831.4,5.00,0.00,23.7,22.9,00.0,32.8,25.4,06.2,0000.0,0006.31,0003.22,0002.50
2022-02-28 09:36:00,,0831.3,5.00,0.00,23.6,22.9,00.0,32.7,25.4,06.1,0000.0,0006.17,0003.22,0002.51
2022-02-28 09:37:00,,0831.4,5.01,0.00,23.6,22.8,00.0,32.7,25.3,05.9,0000.0,0005.94,0003.17,0002.45
2022-02-28 09:38:00,,0831.4,5.00,0.00,23.6,22.8,00.0,32.7,25.3,05.9,0000.0,0005.93,0003.14,0002.40
2022-02-28 09:39:00,,0831.4,5.00,0.00,23.5,22.7,00.0,32.7,25.3,06.1,0000.0,0005.96,0003.12,0002.35
2022-02-28 09:40:00,,0831.4,4.99,0.00,23.5,22.7,00.0,32.7,25.2,06.2,0000.0,0006.92,0003.12,0002.31
2022-02-28 09:41:00,,0831.4,5.00,0.00,23.5,22.7,00.0,32.7,25.2,06.2,0000.0,0007.51,0003.10,0002.30
2022-02-28 09:42:00,,0831.4,5.00,0.00,23.5,22.7,00.0,32.6,25.2,06.2,0000.0,0007.54,0003.04,0002.28
2022-02-28 09:43:00,,0831.4,5.00,0.00,23.4,22.7,00.0,32.6,25.2,06.2,0000.0,0007.66,0002.90,0002.21
2022-02-28 09:44:00,,0831.4,5.00,0.00,23.4,22.6,00.0,32.6,25.2,06.2,0000.0,0007.58,0002.85,0002.20
2022-02-28 09:45:00,,0831.4,4.99,0.00,23.4,22.6,00.0,32.6,25.1,06.2,0000.0,0007.39,0002.80,0002.16
2022-02-28 09:46:00,,0831.4,5.00,0.00,23.4,22.6,00.0,32.6,25.1,06.2,0000.0,0007.33,0002.63,0002.03
2022-02-28 09:47:00,,0831.4,5.00,0.00,23.4,22.6,00.0,32.5,25.1,06.3,0000.0,0007.28,0002.56,0001.92
2022-02-28 09:48:00,,0831.4,5.01,0.00,23.4,22.6,00.0,32.5,25.1,06.2,0000.0,0007.31,0002.61,0001.96
2022-02-28 09:49:00,,0831.4,5.00,0.00,23.4,22.6,00.0,32.5,25.0,06.3,0000.0,0007.37,0002.72,0002.04
2022-02-28 09:50:00,,0831.4,4.99,0.00,23.4,22.6,00.0,32.5,25.0,06.3,0000.0,0007.43,0002.76,0002.13
2022-02-28 09:51:00,,0831.4,4.99,0.00,23.3,22.5,00.0,32.5,25.0,06.9,0000.0,0007.23,0002.82,0002.24
2022-02-28 09:52:00,,0831.4,5.01,0.00,23.3,22.4,00.0,32.5,25.0,07.3,0000.0,0006.42,0002.90,0002.36
2022-02-28 09:53:00,,0831.4,5.00,0.00,23.3,22.4,00.0,32.4,24.9,07.0,0000.0,0005.90,0002.94,0002.44
2022-02-28 09:54:00,,0831.3,5.00,0.00,23.2,22.3,00.0,32.4,24.9,06.9,0000.0,0005.37,0003.01,0002.52
2022-02-28 09:55:00,,0831.4,5.00,0.00,23.2,22.3,00.0,32.4,24.9,06.7,0000.0,0006.31,0003.08,0002.58
2022-02-28 09:56:00,,0831.4,5.00,0.00,23.2,22.3,00.0,32.4,24.9,06.7,0000.0,0006.49,0003.12,0002.66
2022-02-28 09:57:00,,0831.4,4.99,0.00,23.2,22.3,00.0,32.4,24.9,06.7,0000.0,0006.58,0003.18,0002.75
2022-02-28 09:58:00,,0831.4,5.00,0.00,23.2,22.3,00.0,32.3,24.9,06.6,0000.0,0007.32,0003.22,0002.86
2022-02-28 09:59:00,,0831.5,5.01,0.00,23.1,22.3,00.0,32.3,24.9,06.7,0000.0,0007.35,0003.25,0002.95
